Time,TemperatureF,DewpointF,PressureIn,WindDirection,WindDirectionDegrees,WindSpeedMPH,WindSpeedGustMPH,Humidity,HourlyPrecipIn,Conditions,Clouds,dailyrainin,SolarRadiationWatts/m^2,SoftwareType,DateUTC
2013-04-04 00:02:00,77.0,37.0,-100.00,SW,228,0.0,5.0,24,0.00,,,0.00,0.000000,,2013-04-04 07:02:00,
2013-04-04 00:12:00,77.0,37.0,-100.00,SW,228,0.0,5.0,24,0.00,,,0.00,0.000000,,2013-04-04 07:12:00,
2013-04-04 00:21:00,77.0,37.0,-100.00,SW,228,0.0,5.0,24,0.00,,,0.00,0.000000,,2013-04-04 07:21:00,
2013-04-04 00:52:00,72.0,41.0,-100.00,SE,139,0.0,4.0,32,0.00,,,0.00,0.000000,,2013-04-04 07:52:00,
2013-04-04 01:02:00,72.0,41.0,-100.00,SE,139,0.0,4.0,32,0.00,,,0.00,0.000000,,2013-04-04 08:02:00,
2013-04-04 01:12:00,72.0,41.0,-100.00,SE,139,0.0,4.0,32,0.00,,,0.00,0.000000,,2013-04-04 08:12:00,
2013-04-04 01:22:00,72.0,41.0,-100.00,SE,139,0.0,4.0,32,0.00,,,0.00,0.000000,,2013-04-04 08:22:00,
2013-04-04 01:52:00,68.0,39.0,-100.00,NNE,19,0.0,3.0,35,0.00,,,0.00,0.000000,,2013-04-04 08:52:00,
2013-04-04 02:02:00,68.0,39.0,-100.00,NNE,19,0.0,3.0,35,0.00,,,0.00,0.000000,,2013-04-04 09:02:00,
2013-04-04 02:12:00,68.0,39.0,-100.00,NNE,19,0.0,3.0,35,0.00,,,0.00,0.000000,,2013-04-04 09:12:00,
2013-04-04 02:22:00,68.0,39.0,-100.00,NNE,19,0.0,3.0,35,0.00,,,0.00,0.000000,,2013-04-04 09:22:00,
2013-04-04 02:53:00,68.0,36.0,-100.00,North,358,0.0,4.0,31,0.00,,,0.00,0.000000,,2013-04-04 09:53:00,
2013-04-04 03:03:00,68.0,36.0,-100.00,North,358,0.0,4.0,31,0.00,,,0.00,0.000000,,2013-04-04 10:03:00,
2013-04-04 03:12:00,68.0,36.0,-100.00,North,358,0.0,4.0,31,0.00,,,0.00,0.000000,,2013-04-04 10:12:00,
2013-04-04 03:23:00,68.0,36.0,-100.00,North,358,0.0,4.0,31,0.00,,,0.00,0.000000,,2013-04-04 10:23:00,
2013-04-04 03:53:00,67.0,36.0,-100.00,NNE,23,1.0,4.0,32,0.00,,,0.00,0.000000,,2013-04-04 10:53:00,
2013-04-04 04:02:00,67.0,36.0,-100.00,NNE,23,1.0,4.0,32,0.00,,,0.00,0.000000,,2013-04-04 11:02:00,
2013-04-04 04:12:00,67.0,36.0,-100.00,NNE,23,1.0,4.0,32,0.00,,,0.00,0.000000,,2013-04-04 11:12:00,
2013-04-04 04:22:00,67.0,36.0,-100.00,NNE,23,1.0,4.0,32,0.00,,,0.00,0.000000,,2013-04-04 11:22:00,
2013-04-04 04:53:00,66.0,34.0,-100.00,NW,322,0.0,4.0,31,0.00,,,0.00,0.000000,,2013-04-04 11:53:00,
2013-04-04 05:02:00,66.0,34.0,-100.00,NW,322,0.0,4.0,31,0.00,,,0.00,0.000000,,2013-04-04 12:02:00,
2013-04-04 05:12:00,66.0,34.0,-100.00,NW,322,0.0,4.0,31,0.00,,,0.00,0.000000,,2013-04-04 12:12:00,
2013-04-04 05:22:00,66.0,34.0,-100.00,NW,322,0.0,4.0,31,0.00,,,0.00,0.000000,,2013-04-04 12:22:00,
2013-04-04 05:52:00,64.0,45.0,-100.00,NW,304,0.0,3.0,50,0.00,,,0.00,0.000000,,2013-04-04 12:52:00,
2013-04-04 06:02:00,64.0,45.0,-100.00,NW,304,0.0,3.0,50,0.00,,,0.00,0.000000,,2013-04-04 13:02:00,
2013-04-04 06:12:00,64.0,45.0,-100.00,NW,304,0.0,3.0,50,0.00,,,0.00,0.000000,,2013-04-04 13:12:00,
2013-04-04 06:21:00,64.0,45.0,-100.00,NW,304,0.0,3.0,50,0.00,,,0.00,0.000000,,2013-04-04 13:21:00,
2013-04-04 06:52:00,62.0,37.0,-100.00,NNE,16,0.0,3.0,39,0.00,,,0.00,0.000000,,2013-04-04 13:52:00,
2013-04-04 07:02:00,62.0,37.0,-100.00,NNE,16,0.0,3.0,39,0.00,,,0.00,0.000000,,2013-04-04 14:02:00,
2013-04-04 07:12:00,62.0,37.0,-100.00,NNE,16,0.0,3.0,39,0.00,,,0.00,0.000000,,2013-04-04 14:12:00,
2013-04-04 07:22:00,62.0,37.0,-100.00,NNE,16,0.0,3.0,39,0.00,,,0.00,0.000000,,2013-04-04 14:22:00,
2013-04-04 07:52:00,64.0,44.0,-100.00,NE,37,0.0,4.0,49,0.00,,,0.00,49.000000,,2013-04-04 14:52:00,
2013-04-04 08:02:00,64.0,44.0,-100.00,NE,37,0.0,4.0,49,0.00,,,0.00,49.000000,,2013-04-04 15:02:00,
2013-04-04 08:12:00,64.0,44.0,-100.00,NE,37,0.0,4.0,49,0.00,,,0.00,49.000000,,2013-04-04 15:12:00,
2013-04-04 08:22:00,64.0,44.0,-100.00,NE,37,0.0,4.0,49,0.00,,,0.00,49.000000,,2013-04-04 15:22:00,
2013-04-04 08:53:00,71.0,37.0,-100.00,West,276,0.0,2.0,29,0.00,,,0.00,76.000000,,2013-04-04 15:53:00,
2013-04-04 09:03:00,71.0,37.0,-100.00,West,276,0.0,2.0,29,0.00,,,0.00,76.000000,,2013-04-04 16:03:00,
2013-04-04 09:12:00,71.0,37.0,-100.00,West,276,0.0,2.0,29,0.00,,,0.00,76.000000,,2013-04-04 16:12:00,
2013-04-04 09:23:00,71.0,37.0,-100.00,West,276,0.0,2.0,29,0.00,,,0.00,76.000000,,2013-04-04 16:23:00,
2013-04-04 09:53:00,81.0,39.0,-100.00,NE,53,0.0,4.0,22,0.00,,,0.00,79.000000,,2013-04-04 16:53:00,
2013-04-04 10:02:00,81.0,39.0,-100.00,NE,53,0.0,4.0,22,0.00,,,0.00,79.000000,,2013-04-04 17:02:00,
2013-04-04 10:13:00,81.0,39.0,-100.00,NE,53,0.0,4.0,22,0.00,,,0.00,79.000000,,2013-04-04 17:13:00,
2013-04-04 10:22:00,81.0,39.0,-100.00,NE,53,0.0,4.0,22,0.00,,,0.00,79.000000,,2013-04-04 17:22:00,
2013-04-04 10:52:00,84.0,40.0,-100.00,SE,138,0.0,5.0,21,0.00,,,0.00,518.000000,,2013-04-04 17:52:00,
2013-04-04 11:02:00,84.0,40.0,-100.00,SE,138,0.0,5.0,21,0.00,,,0.00,518.000000,,2013-04-04 18:02:00,
2013-04-04 11:12:00,84.0,40.0,-100.00,SE,138,0.0,5.0,21,0.00,,,0.00,518.000000,,2013-04-04 18:12:00,
2013-04-04 11:22:00,84.0,40.0,-100.00,SE,138,0.0,5.0,21,0.00,,,0.00,518.000000,,2013-04-04 18:22:00,
2013-04-04 11:52:00,90.0,33.0,-100.00,South,183,4.0,9.0,13,0.00,,,0.00,830.000000,,2013-04-04 18:52:00,
2013-04-04 12:02:00,90.0,33.0,-100.00,South,183,4.0,9.0,13,0.00,,,0.00,830.000000,,2013-04-04 19:02:00,
2013-04-04 12:12:00,90.0,33.0,-100.00,South,183,4.0,9.0,13,0.00,,,0.00,830.000000,,2013-04-04 19:12:00,
2013-04-04 12:22:00,90.0,33.0,-100.00,South,183,4.0,9.0,13,0.00,,,0.00,830.000000,,2013-04-04 19:22:00,
2013-04-04 12:52:00,92.0,30.0,-100.00,SE,144,7.0,11.0,11,0.00,,,0.00,924.000000,,2013-04-04 19:52:00,
2013-04-04 13:53:00,93.0,33.0,-100.00,SW,219,8.0,13.0,12,0.00,,,0.00,753.000000,,2013-04-04 20:53:00,
2013-04-04 14:02:00,93.0,33.0,-100.00,SW,219,8.0,13.0,12,0.00,,,0.00,753.000000,,2013-04-04 21:02:00,
2013-04-04 14:12:00,93.0,33.0,-100.00,SW,219,8.0,13.0,12,0.00,,,0.00,753.000000,,2013-04-04 21:12:00,
2013-04-04 14:22:00,93.0,33.0,-100.00,SW,219,8.0,13.0,12,0.00,,,0.00,753.000000,,2013-04-04 21:22:00,
2013-04-04 14:53:00,91.0,31.0,-100.00,SW,225,9.0,17.0,12,0.00,,,0.00,711.000000,,2013-04-04 21:53:00,
2013-04-04 15:03:00,91.0,31.0,-100.00,SW,225,9.0,17.0,12,0.00,,,0.00,711.000000,,2013-04-04 22:03:00,
2013-04-04 15:12:00,91.0,31.0,-100.00,SW,225,9.0,17.0,12,0.00,,,0.00,711.000000,,2013-04-04 22:12:00,
2013-04-04 15:22:00,91.0,31.0,-100.00,SW,225,9.0,17.0,12,0.00,,,0.00,711.000000,,2013-04-04 22:22:00,
2013-04-04 15:53:00,92.0,32.0,-100.00,SW,228,8.0,16.0,12,0.00,,,0.00,596.000000,,2013-04-04 22:53:00,
2013-04-04 16:02:00,92.0,32.0,-100.00,SW,228,8.0,16.0,12,0.00,,,0.00,596.000000,,2013-04-04 23:02:00,
2013-04-04 16:12:00,92.0,32.0,-100.00,SW,228,8.0,16.0,12,0.00,,,0.00,596.000000,,2013-04-04 23:12:00,
2013-04-04 16:22:00,92.0,32.0,-100.00,SW,228,8.0,16.0,12,0.00,,,0.00,596.000000,,2013-04-04 23:22:00,
2013-04-04 16:52:00,91.0,27.0,-100.00,SW,226,7.0,14.0,10,0.00,,,0.00,459.000000,,2013-04-04 23:52:00,
2013-04-04 17:52:00,90.0,31.0,-100.00,SW,223,6.0,12.0,12,0.00,,,0.00,245.000000,,2013-04-05 00:52:00,
2013-04-04 18:02:00,90.0,31.0,-100.00,SW,223,6.0,12.0,12,0.00,,,0.00,245.000000,,2013-04-05 01:02:00,
2013-04-04 18:53:00,87.0,30.0,-100.00,SW,232,4.0,12.0,13,0.00,,,0.00,106.000000,,2013-04-05 01:53:00,
2013-04-04 19:52:00,86.0,33.0,-100.00,WSW,241,5.0,7.0,15,0.00,,,0.00,18.000000,,2013-04-05 02:52:00,
2013-04-04 20:53:00,84.0,34.0,-100.00,SW,233,6.0,10.0,17,0.00,,,0.00,0.000000,,2013-04-05 03:53:00,
2013-04-04 21:02:00,84.0,34.0,-100.00,SW,233,6.0,10.0,17,0.00,,,0.00,0.000000,,2013-04-05 04:02:00,
2013-04-04 21:52:00,83.0,38.0,-100.00,West,268,11.0,20.0,20,0.00,,,0.00,0.000000,,2013-04-05 04:52:00,
2013-04-04 22:02:00,83.0,38.0,-100.00,West,268,11.0,20.0,20,0.00,,,0.00,0.000000,,2013-04-05 05:02:00,
2013-04-04 22:12:00,83.0,38.0,-100.00,West,268,11.0,20.0,20,0.00,,,0.00,0.000000,,2013-04-05 05:12:00,
2013-04-04 22:22:00,83.0,38.0,-100.00,West,268,11.0,20.0,20,0.00,,,0.00,0.000000,,2013-04-05 05:22:00,
2013-04-04 22:52:00,80.0,42.0,-100.00,WNW,292,18.0,29.0,26,0.00,,,0.00,0.000000,,2013-04-05 05:52:00,
2013-04-04 23:02:00,80.0,42.0,-100.00,WNW,292,18.0,29.0,26,0.00,,,0.00,0.000000,,2013-04-05 06:02:00,
2013-04-04 23:12:00,80.0,42.0,-100.00,WNW,292,18.0,29.0,26,0.00,,,0.00,0.000000,,2013-04-05 06:12:00,
2013-04-04 23:22:00,80.0,42.0,-100.00,WNW,292,18.0,29.0,26,0.00,,,0.00,0.000000,,2013-04-05 06:22:00,
2013-04-04 23:52:00,77.0,41.0,-100.00,WNW,290,16.0,26.0,28,0.00,,,0.00,0.000000,,2013-04-05 06:52:00,